UAE148 OMDB-EDDH

Flight info

Callsign UAE148
Flight time 8h 5m
Altitude 35000
Route ANVIX L223 TARDI N629 BOTAM Y855 LAKLU/N0496F340 Q204 NALKI G652 TOKRA DCT ALROK DCT BOSOB DCT ITRUX Y511 BOXEB/N0495F360 Y511 PMA Z712 WEJ L677 GESON Q777 RASDA DCT OTHON DCT VAXOS DCT RDS UL609 MES DCT EVIVI/N0477F380 L863 OKANA DCT BABIT DCT ARSIN DCT DITIS DCT KILNU DCT ABGUS DCT DIRBO/N0457F230 T902 RARUP RARUP3S
Aircraft B77W/H-SDE1E2E3FGHIJ2J3J4J5M1RWXY/LB1D1

Departure

Time 2026-04-25 12:00
Airport Dubai International Airport (OMDB)

Arrival

Time 2026-04-25 20:05
Airport Hamburg Helmut Schmidt Airport (EDDH)
Time Latitude Longitude Altitude Speed Heading
2026-04-25 11:08 25.25238 55.35648 27 ft 0 kts 212°
2026-04-25 11:39 25.25260 55.35663 26 ft 4 kts 212°
2026-04-25 11:39 25.25281 55.35678 24 ft 4 kts 220°
2026-04-25 11:39 25.25296 55.35697 25 ft 4 kts 249°
2026-04-25 11:39 25.25300 55.35721 26 ft 4 kts 280°
2026-04-25 11:40 25.25293 55.35747 25 ft 4 kts 298°
2026-04-25 11:40 25.25285 55.35761 25 ft 1 kts 301°
2026-04-25 11:40 25.25285 55.35763 25 ft 0 kts 301°
2026-04-25 11:45 25.25286 55.35760 25 ft 2 kts 301°
2026-04-25 11:46 25.25297 55.35740 26 ft 5 kts 301°
2026-04-25 11:46 25.25315 55.35708 25 ft 5 kts 302°
2026-04-25 11:46 25.25333 55.35675 27 ft 5 kts 302°
2026-04-25 11:46 25.25351 55.35643 27 ft 5 kts 302°
2026-04-25 11:47 25.25370 55.35611 27 ft 5 kts 302°
2026-04-25 11:47 25.25393 55.35570 27 ft 7 kts 302°
2026-04-25 11:47 25.25418 55.35524 27 ft 7 kts 301°
2026-04-25 11:47 25.25444 55.35479 27 ft 7 kts 302°
2026-04-25 11:48 25.25469 55.35434 27 ft 7 kts 302°
2026-04-25 11:48 25.25494 55.35388 27 ft 7 kts 301°
2026-04-25 11:48 25.25509 55.35361 27 ft 3 kts 301°
2026-04-25 11:48 25.25523 55.35336 27 ft 6 kts 301°
2026-04-25 11:49 25.25560 55.35269 27 ft 13 kts 301°
2026-04-25 11:49 25.25608 55.35184 27 ft 13 kts 307°
2026-04-25 11:49 25.25691 55.35171 27 ft 13 kts 22°
2026-04-25 11:49 25.25726 55.35191 27 ft 0 kts 30°
2026-04-25 11:50 25.25736 55.35198 27 ft 7 kts 30°
2026-04-25 11:51 25.25821 55.35253 27 ft 22 kts 31°
2026-04-25 11:51 25.25957 55.35358 27 ft 24 kts 50°
2026-04-25 11:51 25.25983 55.35533 27 ft 24 kts 111°
2026-04-25 11:51 25.25927 55.35629 27 ft 9 kts 113°
2026-04-25 11:52 25.25896 55.35695 27 ft 11 kts 119°
2026-04-25 11:52 25.25853 55.35773 27 ft 12 kts 121°
2026-04-25 11:52 25.25810 55.35851 27 ft 12 kts 122°
2026-04-25 11:52 25.25759 55.35940 27 ft 15 kts 122°
2026-04-25 11:53 25.25698 55.36051 27 ft 18 kts 121°
2026-04-25 11:53 25.25626 55.36182 27 ft 21 kts 121°
2026-04-25 11:53 25.25543 55.36332 27 ft 24 kts 121°
2026-04-25 11:53 25.25452 55.36498 27 ft 26 kts 122°
2026-04-25 11:54 25.25360 55.36663 27 ft 26 kts 121°
2026-04-25 11:54 25.25266 55.36830 27 ft 26 kts 121°
2026-04-25 11:54 25.25080 55.37165 27 ft 26 kts 122°
2026-04-25 11:55 25.24992 55.37330 27 ft 24 kts 121°
2026-04-25 11:55 25.24903 55.37488 27 ft 24 kts 122°
2026-04-25 11:55 25.24815 55.37646 27 ft 24 kts 121°
2026-04-25 11:55 25.24747 55.37774 27 ft 14 kts 120°
2026-04-25 11:56 25.24696 55.37864 27 ft 14 kts 122°
2026-04-25 11:56 25.24685 55.37957 27 ft 14 kts 50°
2026-04-25 11:56 25.24761 55.38013 27 ft 13 kts 21°
2026-04-25 11:56 25.24832 55.37969 27 ft 11 kts 309°
2026-04-25 11:57 25.24865 55.37914 27 ft 0 kts 301°
2026-04-25 11:58 25.24873 55.37897 27 ft 15 kts 301°
2026-04-25 11:59 25.25050 55.37578 27 ft 81 kts 302°
2026-04-25 11:59 25.25448 55.36869 27 ft 135 kts 302°
2026-04-25 11:59 25.26019 55.35845 28 ft 176 kts 302°
2026-04-25 12:00 25.27370 55.33559 766 ft 183 kts 302°
2026-04-25 12:00 25.28061 55.32284 1011 ft 199 kts 301°
2026-04-25 12:00 25.29206 55.29399 1926 ft 216 kts 271°
2026-04-25 12:01 25.28900 55.27768 2308 ft 229 kts 250°
2026-04-25 12:01 25.28220 55.26126 2635 ft 242 kts 250°
2026-04-25 12:01 25.27527 55.24395 2969 ft 249 kts 246°
2026-04-25 12:01 25.26759 55.22682 3556 ft 249 kts 245°
2026-04-25 12:02 25.25234 55.19239 4698 ft 250 kts 245°
2026-04-25 12:02 25.24282 55.17642 5147 ft 254 kts 219°
2026-04-25 12:02 25.22678 55.16772 5515 ft 266 kts 189°
2026-04-25 12:03 25.20836 55.16786 6068 ft 267 kts 177°
2026-04-25 12:03 25.18992 55.17255 6356 ft 282 kts 151°
2026-04-25 12:03 25.17581 55.18772 6753 ft 290 kts 121°
2026-04-25 12:03 25.16656 55.20770 7168 ft 296 kts 118°
2026-04-25 12:04 25.15734 55.22786 7907 ft 294 kts 119°
2026-04-25 12:04 25.14785 55.24802 8437 ft 298 kts 120°
2026-04-25 12:04 25.13824 55.26816 9117 ft 296 kts 120°
2026-04-25 12:04 25.12861 55.28834 9678 ft 300 kts 120°
2026-04-25 12:05 25.11893 55.30850 10233 ft 300 kts 120°
2026-04-25 12:05 25.10915 55.32884 10838 ft 301 kts 120°
2026-04-25 12:05 25.09990 55.34972 11451 ft 303 kts 116°
2026-04-25 12:05 25.09127 55.37102 12095 ft 305 kts 116°
2026-04-25 12:06 25.08257 55.39248 12773 ft 307 kts 116°
2026-04-25 12:06 25.07375 55.41405 13441 ft 311 kts 116°
2026-04-25 12:06 25.06487 55.43652 13709 ft 330 kts 115°
2026-04-25 12:06 25.05566 55.46058 13860 ft 351 kts 115°
2026-04-25 12:07 25.04595 55.48606 14022 ft 371 kts 115°
2026-04-25 12:07 25.03562 55.51300 14180 ft 389 kts 115°
2026-04-25 12:07 25.02486 55.54094 14568 ft 400 kts 115°
2026-04-25 12:07 25.01319 55.56911 15029 ft 407 kts 120°
2026-04-25 12:08 24.99885 55.59616 15571 ft 411 kts 124°
2026-04-25 12:08 24.98347 55.62281 16173 ft 414 kts 124°
2026-04-25 12:08 24.96814 55.64986 16779 ft 418 kts 124°
2026-04-25 12:08 24.95298 55.67750 17345 ft 423 kts 123°
2026-04-25 12:09 24.93795 55.70501 17878 ft 427 kts 125°
2026-04-25 12:09 24.92104 55.73210 18385 ft 430 kts 129°
2026-04-25 12:09 24.90299 55.75859 18863 ft 434 kts 130°
2026-04-25 12:09 24.88465 55.78518 19360 ft 438 kts 129°
2026-04-25 12:10 24.86634 55.81226 19843 ft 442 kts 128°
2026-04-25 12:10 24.84808 55.83970 20318 ft 446 kts 128°
2026-04-25 12:10 24.82963 55.86746 20782 ft 450 kts 128°
2026-04-25 12:10 24.81091 55.89524 21254 ft 454 kts 129°
2026-04-25 12:11 24.79196 55.92326 21736 ft 458 kts 129°
2026-04-25 12:11 24.77210 55.95077 22161 ft 460 kts 135°
2026-04-25 12:11 24.74897 55.97522 22517 ft 463 kts 141°
2026-04-25 12:11 24.72449 55.99849 22978 ft 467 kts 141°
2026-04-25 12:12 24.70020 56.02231 23458 ft 470 kts 140°
2026-04-25 12:12 24.68423 56.03850 23713 ft 473 kts 139°
2026-04-25 12:12 24.65197 56.07173 24245 ft 476 kts 139°
2026-04-25 12:12 24.62768 56.09672 24638 ft 478 kts 139°
2026-04-25 12:13 24.60331 56.12169 25021 ft 481 kts 139°
2026-04-25 12:13 24.57910 56.14660 25404 ft 484 kts 138°
2026-04-25 12:13 24.55570 56.17339 25787 ft 488 kts 132°
2026-04-25 12:13 24.53352 56.20179 26139 ft 491 kts 132°
2026-04-25 12:14 24.51134 56.23051 26513 ft 494 kts 132°
2026-04-25 12:14 24.48906 56.25929 26875 ft 496 kts 132°
2026-04-25 12:14 24.46659 56.28814 27225 ft 498 kts 132°
2026-04-25 12:14 24.44392 56.31709 27578 ft 500 kts 132°
2026-04-25 12:15 24.42114 56.34606 27903 ft 503 kts 133°
2026-04-25 12:15 24.39824 56.37512 28224 ft 505 kts 133°
2026-04-25 12:15 24.37515 56.40441 28513 ft 508 kts 133°
2026-04-25 12:15 24.35202 56.43375 28796 ft 510 kts 133°
2026-04-25 12:16 24.32876 56.46326 29097 ft 512 kts 132°
2026-04-25 12:16 24.30541 56.49288 29359 ft 514 kts 132°
2026-04-25 12:16 24.28312 56.52369 29651 ft 517 kts 128°
2026-04-25 12:16 24.26200 56.55555 29986 ft 517 kts 127°
2026-04-25 12:17 24.24134 56.58713 30312 ft 516 kts 127°
2026-04-25 12:17 24.22042 56.61908 30618 ft 516 kts 127°
2026-04-25 12:17 24.19940 56.65104 30933 ft 516 kts 127°
2026-04-25 12:17 24.17834 56.68284 31232 ft 516 kts 128°
2026-04-25 12:18 24.15722 56.71460 31550 ft 515 kts 128°
2026-04-25 12:18 24.13607 56.74635 31866 ft 515 kts 128°
2026-04-25 12:18 24.11496 56.77804 32156 ft 515 kts 128°
2026-04-25 12:18 24.09384 56.80976 32440 ft 515 kts 128°
2026-04-25 12:19 24.05685 56.86040 32821 ft 511 kts 140°
2026-04-25 12:19 24.01848 56.89036 33113 ft 505 kts 155°
2026-04-25 12:19 23.98634 56.90543 33396 ft 500 kts 167°
2026-04-25 12:20 23.95287 56.91452 33594 ft 496 kts 170°
2026-04-25 12:20 23.91953 56.92280 33787 ft 497 kts 170°
2026-04-25 12:20 23.88582 56.93123 34027 ft 497 kts 170°
2026-04-25 12:20 23.85211 56.93985 34218 ft 498 kts 169°
2026-04-25 12:21 23.81842 56.94867 34387 ft 499 kts 169°
2026-04-25 12:21 23.78463 56.95767 34549 ft 500 kts 169°
2026-04-25 12:21 23.75085 56.96674 34781 ft 500 kts 169°
2026-04-25 12:22 23.68295 56.98499 34909 ft 503 kts 169°
2026-04-25 12:22 23.61517 57.00317 34937 ft 499 kts 169°
2026-04-25 12:23 23.54791 57.02115 34952 ft 497 kts 169°
2026-04-25 12:23 23.48069 57.03908 34960 ft 497 kts 169°
2026-04-25 12:24 23.41343 57.05623 34972 ft 495 kts 174°
2026-04-25 12:24 23.34508 57.05865 34983 ft 490 kts 188°
2026-04-25 12:25 23.27840 57.04526 34989 ft 487 kts 196°
2026-04-25 12:25 23.21260 57.02891 34979 ft 489 kts 195°
2026-04-25 12:26 23.14597 57.01299 34986 ft 490 kts 195°
2026-04-25 12:26 23.07919 56.99740 34978 ft 491 kts 195°
2026-04-25 12:27 23.01230 56.98178 34971 ft 491 kts 195°
2026-04-25 12:27 22.94548 56.96593 34974 ft 491 kts 195°
2026-04-25 12:28 22.87867 56.94996 34959 ft 489 kts 197°
2026-04-25 12:28 22.84702 56.93762 34950 ft 481 kts 213°
2026-04-25 12:28 22.82066 56.91671 34965 ft 474 kts 227°
2026-04-25 12:28 22.79971 56.88947 34946 ft 468 kts 242°
2026-04-25 12:29 22.78449 56.85849 34965 ft 464 kts 246°
2026-04-25 12:29 22.75561 56.79557 34946 ft 468 kts 246°
2026-04-25 12:30 22.72600 56.73245 34930 ft 471 kts 245°
2026-04-25 12:30 22.69575 56.66924 34921 ft 473 kts 245°
2026-04-25 12:31 22.66551 56.60643 34911 ft 472 kts 245°
2026-04-25 12:31 22.63518 56.54347 34904 ft 471 kts 245°
2026-04-25 12:32 22.60499 56.48079 34896 ft 468 kts 245°
2026-04-25 12:32 22.57490 56.41839 34886 ft 466 kts 245°
2026-04-25 12:33 22.54490 56.35628 34886 ft 465 kts 245°
2026-04-25 12:33 22.51489 56.29443 34882 ft 464 kts 245°
2026-04-25 12:34 22.48504 56.23295 34876 ft 463 kts 245°
2026-04-25 12:34 22.45503 56.17119 34875 ft 464 kts 245°
2026-04-25 12:35 22.43006 56.11986 34874 ft 464 kts 245°
2026-04-25 12:35 22.39998 56.05807 34867 ft 464 kts 245°
2026-04-25 12:36 22.36984 55.99630 34863 ft 464 kts 245°
2026-04-25 12:36 22.33956 55.93467 34856 ft 465 kts 245°
2026-04-25 12:37 22.30922 55.87303 34855 ft 464 kts 245°
2026-04-25 12:37 22.27893 55.81147 34847 ft 464 kts 245°
2026-04-25 12:38 22.24861 55.74993 34850 ft 463 kts 246°
2026-04-25 12:38 22.21836 55.68849 34844 ft 463 kts 246°
2026-04-25 12:39 22.18830 55.62746 34846 ft 462 kts 246°
2026-04-25 12:39 22.16342 55.56416 34840 ft 456 kts 257°
2026-04-25 12:40 22.15072 55.49760 34838 ft 451 kts 267°
2026-04-25 12:40 22.14536 55.43022 34835 ft 451 kts 268°
2026-04-25 12:41 22.14028 55.36284 34830 ft 451 kts 268°
2026-04-25 12:41 22.13492 55.29526 34830 ft 452 kts 267°
2026-04-25 12:42 22.12938 55.22777 34824 ft 452 kts 267°
2026-04-25 12:42 22.12374 55.16024 34827 ft 453 kts 267°
2026-04-25 12:43 22.11810 55.09294 34823 ft 453 kts 267°
2026-04-25 12:43 22.10952 54.99124 34820 ft 454 kts 267°
2026-04-25 12:44 22.10375 54.92325 34813 ft 455 kts 267°
2026-04-25 12:45 22.09506 54.82141 34812 ft 455 kts 267°
2026-04-25 12:45 22.08635 54.71994 34815 ft 454 kts 267°
2026-04-25 12:46 22.08048 54.65208 34827 ft 454 kts 267°
2026-04-25 12:46 22.07459 54.58426 34823 ft 454 kts 267°
2026-04-25 12:47 22.06867 54.51650 34824 ft 454 kts 266°
2026-04-25 12:47 22.06274 54.44876 34823 ft 454 kts 266°
2026-04-25 12:48 22.05680 54.38142 34821 ft 454 kts 266°
2026-04-25 12:48 22.05078 54.31354 34814 ft 455 kts 266°
2026-04-25 12:49 22.04473 54.24561 34822 ft 455 kts 266°
2026-04-25 12:49 22.03865 54.17757 34819 ft 456 kts 266°
2026-04-25 12:50 22.03254 54.10946 34841 ft 456 kts 266°
2026-04-25 12:50 22.02644 54.04186 34831 ft 456 kts 266°
2026-04-25 12:51 22.02028 53.97396 34835 ft 455 kts 266°
2026-04-25 12:51 22.01409 53.90604 34829 ft 455 kts 266°
2026-04-25 12:52 22.00789 53.83826 34819 ft 454 kts 266°
2026-04-25 12:52 22.00166 53.77054 34832 ft 453 kts 266°
2026-04-25 12:53 21.99542 53.70291 34821 ft 453 kts 266°
2026-04-25 12:53 21.98915 53.63536 34827 ft 453 kts 266°
2026-04-25 12:54 21.98285 53.56767 34836 ft 454 kts 266°
2026-04-25 12:54 21.97651 53.49999 34839 ft 454 kts 266°
2026-04-25 12:55 21.97123 53.44374 34830 ft 454 kts 266°
2026-04-25 12:55 21.96380 53.36503 34831 ft 454 kts 266°
2026-04-25 12:56 21.95738 53.29735 34841 ft 454 kts 266°
2026-04-25 12:56 21.95093 53.22968 34834 ft 454 kts 266°
2026-04-25 12:57 21.94446 53.16203 34830 ft 454 kts 266°
2026-04-25 12:57 21.93797 53.09448 34841 ft 453 kts 266°
2026-04-25 12:58 21.93147 53.02712 34841 ft 452 kts 266°
2026-04-25 12:58 21.92495 52.95983 34840 ft 451 kts 266°
2026-04-25 12:59 21.91842 52.89273 34836 ft 450 kts 266°
2026-04-25 12:59 21.91191 52.82619 34841 ft 449 kts 266°
2026-04-25 13:00 21.90753 52.78152 34839 ft 448 kts 266°
2026-04-25 13:00 21.90471 52.69259 34844 ft 445 kts 276°
2026-04-25 13:01 21.91372 52.62681 34842 ft 443 kts 282°
2026-04-25 13:01 21.92599 52.56173 34845 ft 443 kts 282°
2026-04-25 13:02 21.93817 52.49710 34834 ft 443 kts 282°
2026-04-25 13:02 21.95024 52.43197 34835 ft 443 kts 282°
2026-04-25 13:03 21.96216 52.36691 34849 ft 442 kts 282°
2026-04-25 13:03 21.97402 52.30193 34846 ft 441 kts 282°
2026-04-25 13:04 21.98584 52.23700 34839 ft 441 kts 281°
2026-04-25 13:04 21.99752 52.17268 34840 ft 440 kts 281°
2026-04-25 13:05 22.00924 52.10801 34840 ft 439 kts 281°
2026-04-25 13:05 22.02093 52.04337 34841 ft 439 kts 281°
2026-04-25 13:06 22.03261 51.97868 34843 ft 439 kts 281°
2026-04-25 13:06 22.04423 51.91411 34857 ft 438 kts 281°
2026-04-25 13:07 22.05581 51.84966 34845 ft 438 kts 281°
2026-04-25 13:07 22.06735 51.78524 34842 ft 437 kts 281°
2026-04-25 13:08 22.07879 51.72122 34850 ft 437 kts 281°
2026-04-25 13:08 22.09029 51.65673 34865 ft 438 kts 281°
2026-04-25 13:09 22.10177 51.59221 34857 ft 438 kts 280°
2026-04-25 13:09 22.11324 51.52755 34849 ft 439 kts 280°
2026-04-25 13:10 22.12465 51.46311 34857 ft 440 kts 280°
2026-04-25 13:10 22.13612 51.39818 34849 ft 441 kts 280°
2026-04-25 13:11 22.14758 51.33318 34866 ft 442 kts 280°
2026-04-25 13:11 22.15904 51.26798 34854 ft 442 kts 280°
2026-04-25 13:12 22.17047 51.20280 34869 ft 442 kts 280°
2026-04-25 13:12 22.17997 51.14853 34860 ft 443 kts 280°
2026-04-25 13:13 22.19329 51.07221 34856 ft 443 kts 280°
2026-04-25 13:13 22.20459 51.00729 34871 ft 442 kts 280°
2026-04-25 13:14 22.21593 50.94200 34859 ft 442 kts 280°
2026-04-25 13:14 22.22723 50.87675 34866 ft 442 kts 280°
2026-04-25 13:15 22.23850 50.81154 34867 ft 442 kts 280°
2026-04-25 13:15 22.24974 50.74631 34866 ft 441 kts 280°
2026-04-25 13:16 22.26095 50.68115 34870 ft 441 kts 281°
2026-04-25 13:16 22.27210 50.61611 34873 ft 440 kts 281°
2026-04-25 13:17 22.28322 50.55111 34881 ft 440 kts 281°
2026-04-25 13:17 22.29423 50.48660 34870 ft 439 kts 281°
2026-04-25 13:18 22.30527 50.42179 34868 ft 438 kts 281°
2026-04-25 13:18 22.31626 50.35707 34868 ft 437 kts 281°
2026-04-25 13:19 22.32720 50.29249 34871 ft 436 kts 281°
2026-04-25 13:19 22.33449 50.24935 34875 ft 436 kts 281°
2026-04-25 13:20 22.34894 50.16370 34877 ft 435 kts 281°
2026-04-25 13:20 22.35793 50.11024 34877 ft 435 kts 281°
2026-04-25 13:21 22.36871 50.04596 34878 ft 434 kts 281°
2026-04-25 13:21 22.38119 49.97138 34878 ft 434 kts 281°
2026-04-25 13:22 22.39016 49.91764 34876 ft 434 kts 281°
2026-04-25 13:23 22.40614 49.82163 34877 ft 434 kts 281°
2026-04-25 13:23 22.41682 49.75730 34881 ft 434 kts 281°
2026-04-25 13:24 22.42745 49.69305 34882 ft 434 kts 281°
2026-04-25 13:24 22.43807 49.62872 34877 ft 434 kts 281°
2026-04-25 13:25 22.44865 49.56441 34881 ft 434 kts 281°
2026-04-25 13:25 22.45920 49.50019 34879 ft 433 kts 281°
2026-04-25 13:26 22.46964 49.43645 34879 ft 433 kts 281°
2026-04-25 13:26 22.48012 49.37229 34881 ft 432 kts 281°
2026-04-25 13:27 22.49055 49.30831 34881 ft 432 kts 281°
2026-04-25 13:27 22.50095 49.24430 34879 ft 431 kts 281°
2026-04-25 13:28 22.51131 49.18042 34882 ft 431 kts 281°
2026-04-25 13:28 22.52165 49.11650 34885 ft 431 kts 281°
2026-04-25 13:29 22.53194 49.05269 34881 ft 430 kts 280°
2026-04-25 13:29 22.54213 48.98930 34879 ft 430 kts 280°
2026-04-25 13:30 22.55748 48.89362 34885 ft 430 kts 280°
2026-04-25 13:31 22.57275 48.79799 34889 ft 430 kts 280°
2026-04-25 13:31 22.58289 48.73429 34886 ft 430 kts 280°
2026-04-25 13:32 22.59295 48.67095 34891 ft 430 kts 280°
2026-04-25 13:32 22.60306 48.60714 34890 ft 430 kts 280°
2026-04-25 13:33 22.61315 48.54324 34894 ft 430 kts 280°
2026-04-25 13:33 22.62319 48.47951 34890 ft 430 kts 280°
2026-04-25 13:34 22.63320 48.41576 34893 ft 429 kts 280°
2026-04-25 13:34 22.64313 48.35240 34891 ft 429 kts 280°
2026-04-25 13:35 22.65308 48.28871 34890 ft 429 kts 280°
2026-04-25 13:35 22.66302 48.22499 34891 ft 429 kts 280°
2026-04-25 13:36 22.67293 48.16119 34891 ft 429 kts 280°
2026-04-25 13:36 22.68281 48.09748 34892 ft 429 kts 280°
2026-04-25 13:37 22.69239 48.03374 34889 ft 429 kts 278°
2026-04-25 13:37 22.69807 47.96941 34896 ft 429 kts 276°
2026-04-25 13:38 22.70323 47.90508 34894 ft 429 kts 276°
2026-04-25 13:38 22.70844 47.84106 34898 ft 429 kts 276°
2026-04-25 13:39 22.71374 47.77663 34897 ft 429 kts 276°
2026-04-25 13:39 22.71904 47.71215 34896 ft 429 kts 276°
2026-04-25 13:40 22.72431 47.64771 34901 ft 429 kts 276°
2026-04-25 13:40 22.72955 47.58333 34904 ft 429 kts 276°
2026-04-25 13:41 22.73476 47.51895 34905 ft 429 kts 276°
2026-04-25 13:41 22.73995 47.45453 34915 ft 429 kts 276°
2026-04-25 13:42 22.74508 47.39053 34914 ft 429 kts 276°
2026-04-25 13:42 22.75022 47.32605 34914 ft 428 kts 276°
2026-04-25 13:43 22.75531 47.26178 34917 ft 428 kts 276°
2026-04-25 13:43 22.76036 47.19793 34919 ft 428 kts 276°
2026-04-25 13:44 22.76545 47.13366 34926 ft 428 kts 276°
2026-04-25 13:44 22.77061 47.06936 34927 ft 428 kts 276°
2026-04-25 13:45 22.77574 47.00510 34928 ft 428 kts 276°
2026-04-25 13:45 22.78083 46.94080 34928 ft 428 kts 276°
2026-04-25 13:46 22.78590 46.87648 34932 ft 428 kts 276°
2026-04-25 13:46 22.79094 46.81217 34932 ft 428 kts 276°
2026-04-25 13:47 22.79596 46.74774 34933 ft 428 kts 276°
2026-04-25 13:47 22.80092 46.68386 34933 ft 428 kts 276°
2026-04-25 13:48 22.80588 46.61952 34936 ft 428 kts 276°
2026-04-25 13:48 22.81082 46.55515 34942 ft 428 kts 276°
2026-04-25 13:49 22.81574 46.49078 34939 ft 428 kts 276°
2026-04-25 13:49 22.82063 46.42641 34940 ft 428 kts 276°
2026-04-25 13:50 22.82545 46.36245 34940 ft 428 kts 276°
2026-04-25 13:50 22.83020 46.29807 34939 ft 428 kts 275°
2026-04-25 13:51 22.83492 46.23377 34933 ft 428 kts 275°
2026-04-25 13:51 22.83963 46.16943 34933 ft 428 kts 275°
2026-04-25 13:52 22.84429 46.10519 34931 ft 427 kts 275°
2026-04-25 13:52 22.84895 46.04096 34921 ft 427 kts 275°
2026-04-25 13:53 22.85357 45.97679 34921 ft 426 kts 275°
2026-04-25 13:53 22.85814 45.91294 34920 ft 426 kts 275°
2026-04-25 13:54 22.86269 45.84894 34911 ft 426 kts 275°
2026-04-25 13:54 22.86722 45.78490 34912 ft 425 kts 275°
2026-04-25 13:55 22.87172 45.72096 34910 ft 425 kts 275°
2026-04-25 13:55 22.87616 45.65756 34915 ft 425 kts 275°
2026-04-25 13:56 22.88061 45.59353 34909 ft 425 kts 275°
2026-04-25 13:56 22.88504 45.52954 34907 ft 425 kts 275°
2026-04-25 13:57 22.88944 45.46554 34908 ft 425 kts 275°
2026-04-25 13:57 22.89381 45.40154 34908 ft 425 kts 275°
2026-04-25 13:58 22.89813 45.33804 34910 ft 425 kts 275°
2026-04-25 13:58 22.90245 45.27403 34903 ft 426 kts 275°
2026-04-25 13:59 22.90676 45.20983 34907 ft 426 kts 275°
2026-04-25 13:59 22.91103 45.14582 34908 ft 426 kts 275°
2026-04-25 14:00 22.91457 45.09262 34909 ft 426 kts 275°
2026-04-25 14:00 22.91952 45.01761 34906 ft 426 kts 275°
2026-04-25 14:01 22.92373 44.95355 34912 ft 425 kts 275°
2026-04-25 14:01 22.92769 44.89294 34905 ft 426 kts 275°
2026-04-25 14:02 22.93185 44.82892 34909 ft 426 kts 275°
2026-04-25 14:02 22.93600 44.76472 34906 ft 426 kts 275°
2026-04-25 14:03 22.94062 44.70060 34909 ft 425 kts 278°
2026-04-25 14:03 22.95231 44.63775 34913 ft 426 kts 284°
2026-04-25 14:04 22.97076 44.57670 34909 ft 426 kts 287°
2026-04-25 14:04 22.98988 44.51569 34902 ft 427 kts 287°
2026-04-25 14:05 23.00874 44.45500 34899 ft 427 kts 287°
2026-04-25 14:05 23.02762 44.39384 34900 ft 427 kts 287°
2026-04-25 14:06 23.04643 44.33270 34899 ft 427 kts 287°
2026-04-25 14:06 23.06526 44.27136 34903 ft 427 kts 287°
2026-04-25 14:07 23.08406 44.21007 34897 ft 427 kts 287°
2026-04-25 14:07 23.10271 44.14916 34899 ft 428 kts 287°
2026-04-25 14:08 23.12146 44.08782 34905 ft 428 kts 287°
2026-04-25 14:08 23.14019 44.02645 34907 ft 428 kts 287°
2026-04-25 14:09 23.15894 43.96495 34906 ft 429 kts 287°
2026-04-25 14:09 23.17759 43.90367 34911 ft 429 kts 287°
2026-04-25 14:10 23.19327 43.85205 34909 ft 429 kts 287°
2026-04-25 14:10 23.21187 43.79077 34916 ft 429 kts 287°
2026-04-25 14:11 23.23055 43.72909 34918 ft 430 kts 286°
2026-04-25 14:11 23.24924 43.66729 34925 ft 430 kts 286°
2026-04-25 14:12 23.26747 43.60694 34932 ft 429 kts 286°
2026-04-25 14:12 23.28634 43.54437 34930 ft 429 kts 286°
2026-04-25 14:13 23.30477 43.48303 34936 ft 429 kts 286°
2026-04-25 14:13 23.32330 43.42127 34938 ft 429 kts 286°
2026-04-25 14:14 23.34179 43.35954 34946 ft 428 kts 286°
2026-04-25 14:14 23.36020 43.29797 34956 ft 428 kts 286°
2026-04-25 14:15 23.37857 43.23643 34952 ft 427 kts 286°
2026-04-25 14:15 23.39691 43.17492 34961 ft 426 kts 286°
2026-04-25 14:16 23.41518 43.11350 34967 ft 426 kts 286°
2026-04-25 14:16 23.43319 43.05257 34968 ft 425 kts 286°
2026-04-25 14:17 23.45124 42.99134 34965 ft 424 kts 286°
2026-04-25 14:17 23.46925 42.93020 34971 ft 423 kts 286°
2026-04-25 14:18 23.48722 42.86913 34974 ft 423 kts 286°
2026-04-25 14:18 23.50513 42.80814 34970 ft 423 kts 286°
2026-04-25 14:19 23.52305 42.74705 34966 ft 423 kts 286°
2026-04-25 14:19 23.54107 42.68599 34964 ft 423 kts 286°
2026-04-25 14:20 23.55911 42.62495 34967 ft 423 kts 286°
2026-04-25 14:20 23.57702 42.56419 34965 ft 424 kts 286°
2026-04-25 14:21 23.59502 42.50297 34968 ft 424 kts 285°
2026-04-25 14:21 23.61305 42.44158 34968 ft 425 kts 285°
2026-04-25 14:22 23.63105 42.38017 34972 ft 425 kts 285°
2026-04-25 14:22 23.64904 42.31868 34976 ft 426 kts 285°
2026-04-25 14:23 23.66701 42.25702 34981 ft 426 kts 285°
2026-04-25 14:23 23.68469 42.19562 34982 ft 427 kts 285°
2026-04-25 14:24 23.70247 42.13376 34987 ft 427 kts 285°
2026-04-25 14:24 23.72024 42.07187 34989 ft 427 kts 285°
2026-04-25 14:25 23.73801 42.00994 34994 ft 427 kts 285°
2026-04-25 14:25 23.75585 41.94807 34996 ft 427 kts 285°
2026-04-25 14:26 23.77387 41.88625 35003 ft 427 kts 285°
2026-04-25 14:26 23.79174 41.82474 34997 ft 427 kts 285°
2026-04-25 14:27 23.80963 41.76297 34998 ft 427 kts 285°
2026-04-25 14:27 23.82744 41.70104 34996 ft 427 kts 285°
2026-04-25 14:28 23.84517 41.63921 34998 ft 426 kts 285°
2026-04-25 14:28 23.86283 41.57760 34995 ft 426 kts 285°
2026-04-25 14:29 23.88062 41.51539 34993 ft 426 kts 284°
2026-04-25 14:29 23.89826 41.45350 34991 ft 427 kts 284°
2026-04-25 14:30 23.91581 41.39187 34988 ft 427 kts 284°
2026-04-25 14:30 23.94225 41.29881 34987 ft 428 kts 284°
2026-04-25 14:31 23.95987 41.23663 34978 ft 428 kts 284°
2026-04-25 14:31 23.97751 41.17425 34979 ft 429 kts 284°
2026-04-25 14:32 23.99509 41.11201 34973 ft 429 kts 284°
2026-04-25 14:32 24.01260 41.04987 34970 ft 429 kts 284°
2026-04-25 14:33 24.03018 40.98743 34967 ft 429 kts 284°
2026-04-25 14:33 24.04771 40.92502 34960 ft 429 kts 284°
2026-04-25 14:34 24.06517 40.86271 34954 ft 428 kts 284°
2026-04-25 14:34 24.08257 40.80047 34951 ft 427 kts 284°
2026-04-25 14:35 24.09992 40.73832 34945 ft 426 kts 284°
2026-04-25 14:35 24.11723 40.67619 34941 ft 426 kts 284°
2026-04-25 14:36 24.13439 40.61451 34931 ft 426 kts 284°
2026-04-25 14:36 24.15166 40.55234 34926 ft 427 kts 284°
2026-04-25 14:37 24.17293 40.49139 34925 ft 431 kts 292°
2026-04-25 14:37 24.20102 40.43304 34925 ft 433 kts 293°
2026-04-25 14:38 24.22925 40.37447 34917 ft 434 kts 293°
2026-04-25 14:38 24.25736 40.31573 34914 ft 435 kts 293°
2026-04-25 14:39 24.28543 40.25692 34911 ft 435 kts 293°
2026-04-25 14:39 24.31323 40.19855 34912 ft 434 kts 293°
2026-04-25 14:40 24.34117 40.13984 34904 ft 434 kts 293°
2026-04-25 14:40 24.36907 40.08115 34907 ft 433 kts 293°
2026-04-25 14:41 24.39689 40.02254 34902 ft 433 kts 292°
2026-04-25 14:41 24.42466 39.96398 34916 ft 432 kts 292°
2026-04-25 14:42 24.44301 39.92522 34913 ft 432 kts 292°
2026-04-25 14:42 24.48005 39.84690 34916 ft 431 kts 292°
2026-04-25 14:43 24.50751 39.78878 34913 ft 431 kts 292°
2026-04-25 14:43 24.53786 39.73177 34914 ft 438 kts 301°
2026-04-25 14:44 24.57869 39.68152 34921 ft 445 kts 309°
2026-04-25 14:44 24.62795 39.63891 34924 ft 452 kts 316°
2026-04-25 14:45 24.67745 39.60029 34921 ft 451 kts 316°
2026-04-25 14:45 24.72856 39.56013 34911 ft 450 kts 316°
2026-04-25 14:46 24.77923 39.51979 34908 ft 448 kts 315°
2026-04-25 14:46 24.82962 39.47947 34902 ft 447 kts 315°
2026-04-25 14:47 24.86321 39.45256 34902 ft 446 kts 315°
2026-04-25 14:47 24.93002 39.39896 34903 ft 445 kts 315°
2026-04-25 14:48 24.97983 39.35898 34908 ft 445 kts 315°
2026-04-25 14:48 25.02994 39.31873 34885 ft 445 kts 315°
2026-04-25 14:49 25.08002 39.27846 34892 ft 445 kts 315°
2026-04-25 14:49 25.13002 39.23818 34889 ft 444 kts 315°
2026-04-25 14:50 25.17837 39.19913 34897 ft 442 kts 313°
2026-04-25 14:50 25.22228 39.15325 34894 ft 430 kts 304°
2026-04-25 14:51 25.25918 39.10180 34884 ft 423 kts 297°
2026-04-25 14:51 25.29096 39.04755 34866 ft 423 kts 296°
2026-04-25 14:52 25.32261 38.99276 34860 ft 423 kts 295°
2026-04-25 14:52 25.34393 38.95602 34864 ft 424 kts 296°
2026-04-25 14:53 25.38664 38.88271 34867 ft 426 kts 296°
2026-04-25 14:53 25.41887 38.82748 34851 ft 427 kts 296°
2026-04-25 14:54 25.45104 38.77228 34840 ft 427 kts 296°
2026-04-25 14:54 25.48300 38.71740 34848 ft 425 kts 296°
2026-04-25 14:55 25.51506 38.66225 34858 ft 424 kts 296°
2026-04-25 14:55 25.54590 38.60913 34847 ft 423 kts 296°
2026-04-25 14:56 25.57772 38.55426 34845 ft 422 kts 295°
2026-04-25 14:56 25.60944 38.49949 34844 ft 422 kts 295°
2026-04-25 14:57 25.64104 38.44487 34844 ft 421 kts 295°
2026-04-25 14:57 25.66735 38.39933 34846 ft 421 kts 295°
2026-04-25 14:58 25.70400 38.33585 34850 ft 420 kts 295°
2026-04-25 14:58 25.73545 38.28129 34849 ft 419 kts 295°
2026-04-25 14:59 25.76154 38.23599 34850 ft 419 kts 295°
2026-04-25 14:59 25.79289 38.18149 34849 ft 418 kts 295°
2026-04-25 15:00 25.82412 38.12713 34855 ft 417 kts 295°
2026-04-25 15:00 25.85533 38.07276 34864 ft 418 kts 295°
2026-04-25 15:01 25.88659 38.01819 34873 ft 418 kts 295°
2026-04-25 15:01 25.91783 37.96364 34883 ft 418 kts 295°
2026-04-25 15:02 25.94885 37.90940 34885 ft 418 kts 295°
2026-04-25 15:02 25.97956 37.85458 34887 ft 414 kts 291°
2026-04-25 15:03 26.00129 37.79621 34903 ft 406 kts 283°
2026-04-25 15:03 26.01584 37.73596 34913 ft 402 kts 276°
2026-04-25 15:04 26.02398 37.67440 34894 ft 403 kts 275°
2026-04-25 15:04 26.03213 37.61264 34906 ft 404 kts 275°
2026-04-25 15:05 26.04052 37.55071 34891 ft 406 kts 275°
2026-04-25 15:06 26.05315 37.45733 34889 ft 408 kts 275°
2026-04-25 15:06 26.06136 37.39545 34889 ft 405 kts 275°
2026-04-25 15:07 26.06953 37.33382 34892 ft 402 kts 275°
2026-04-25 15:07 26.07766 37.27243 34879 ft 401 kts 275°
2026-04-25 15:08 26.08575 37.21105 34876 ft 401 kts 275°
2026-04-25 15:08 26.09355 37.15155 34878 ft 402 kts 275°
2026-04-25 15:09 26.10161 37.08988 34874 ft 404 kts 275°
2026-04-25 15:09 26.11372 36.99711 34870 ft 404 kts 275°
2026-04-25 15:10 26.12172 36.93554 34865 ft 404 kts 275°
2026-04-25 15:11 26.13373 36.84262 34866 ft 404 kts 275°
2026-04-25 15:11 26.14170 36.78069 34860 ft 404 kts 275°
2026-04-25 15:12 26.15360 36.68783 34862 ft 403 kts 275°
2026-04-25 15:12 26.16012 36.63681 34858 ft 403 kts 275°
2026-04-25 15:13 26.17480 36.53417 34855 ft 406 kts 283°
2026-04-25 15:14 26.19838 36.47631 34866 ft 415 kts 292°
2026-04-25 15:14 26.23285 36.42381 34870 ft 428 kts 304°
2026-04-25 15:15 26.27466 36.37647 34865 ft 429 kts 305°
2026-04-25 15:15 26.31658 36.32929 34867 ft 427 kts 304°
2026-04-25 15:16 26.35798 36.28196 34867 ft 426 kts 304°
2026-04-25 15:16 26.41937 36.21110 34867 ft 424 kts 304°
2026-04-25 15:17 26.47868 36.14246 34860 ft 424 kts 304°
2026-04-25 15:18 26.51965 36.09499 34864 ft 424 kts 304°
2026-04-25 15:18 26.58108 36.02374 34865 ft 424 kts 304°
2026-04-25 15:19 26.61516 35.98416 34869 ft 425 kts 304°
2026-04-25 15:19 26.66274 35.92885 34867 ft 425 kts 304°
2026-04-25 15:20 26.70369 35.88117 34864 ft 425 kts 304°
2026-04-25 15:20 26.74461 35.83348 34864 ft 425 kts 304°
2026-04-25 15:21 26.78550 35.78579 34862 ft 425 kts 304°
2026-04-25 15:21 26.82637 35.73807 34868 ft 424 kts 304°
2026-04-25 15:22 26.86718 35.69039 34864 ft 424 kts 304°
2026-04-25 15:22 26.90796 35.64265 34864 ft 424 kts 304°
2026-04-25 15:23 26.94854 35.59510 34867 ft 423 kts 304°
2026-04-25 15:23 26.98925 35.54734 34865 ft 423 kts 304°
2026-04-25 15:24 27.02967 35.49987 34866 ft 423 kts 304°
2026-04-25 15:24 27.06375 35.45980 34866 ft 423 kts 304°
2026-04-25 15:25 27.11097 35.40422 34870 ft 423 kts 303°
2026-04-25 15:25 27.15159 35.35635 34862 ft 423 kts 303°
2026-04-25 15:26 27.19219 35.30846 34867 ft 423 kts 303°
2026-04-25 15:26 27.23270 35.26060 34869 ft 423 kts 303°
2026-04-25 15:27 27.27324 35.21267 34866 ft 423 kts 303°
2026-04-25 15:28 27.33382 35.14093 34862 ft 423 kts 303°
2026-04-25 15:28 27.37433 35.09289 34847 ft 423 kts 303°
2026-04-25 15:29 27.41489 35.04474 34853 ft 424 kts 303°
2026-04-25 15:29 27.45542 34.99656 34856 ft 424 kts 303°
2026-04-25 15:30 27.49597 34.94831 34856 ft 424 kts 303°
2026-04-25 15:30 27.53801 34.90102 34854 ft 429 kts 307°
2026-04-25 15:31 27.58167 34.85512 34855 ft 430 kts 307°
2026-04-25 15:31 27.62545 34.80912 34859 ft 430 kts 307°
2026-04-25 15:32 27.66913 34.76298 34858 ft 430 kts 307°
2026-04-25 15:32 27.71272 34.71677 34863 ft 430 kts 307°
2026-04-25 15:33 27.77821 34.64722 34856 ft 430 kts 307°
2026-04-25 15:33 27.82159 34.60109 34849 ft 431 kts 307°
2026-04-25 15:34 27.86523 34.55463 34841 ft 431 kts 307°
2026-04-25 15:34 27.89446 34.52348 34840 ft 431 kts 307°
2026-04-25 15:35 27.97436 34.43824 34833 ft 431 kts 307°
2026-04-25 15:36 28.03398 34.36388 34817 ft 421 kts 301°
2026-04-25 15:36 28.07068 34.31279 34829 ft 422 kts 301°
2026-04-25 15:37 28.10776 34.26134 34849 ft 422 kts 301°
2026-04-25 15:37 28.14502 34.20966 34868 ft 423 kts 301°
2026-04-25 15:38 28.18234 34.15789 34894 ft 424 kts 301°
2026-04-25 15:38 28.21976 34.10593 34930 ft 425 kts 301°
2026-04-25 15:39 28.25732 34.05366 34922 ft 427 kts 300°
2026-04-25 15:39 28.29466 34.00167 34910 ft 427 kts 300°
2026-04-25 15:40 28.31977 33.96669 34909 ft 427 kts 301°
2026-04-25 15:40 28.36991 33.89666 34913 ft 430 kts 301°
2026-04-25 15:41 28.40772 33.84381 34898 ft 430 kts 301°
2026-04-25 15:41 28.44526 33.79133 34900 ft 430 kts 301°
2026-04-25 15:42 28.48281 33.73856 34847 ft 428 kts 301°
2026-04-25 15:42 28.52039 33.68589 34889 ft 430 kts 301°
2026-04-25 15:43 28.55797 33.63317 34902 ft 427 kts 301°
2026-04-25 15:43 28.59551 33.58022 34926 ft 431 kts 301°
2026-04-25 15:44 28.63334 33.52689 34898 ft 434 kts 301°
2026-04-25 15:44 28.67132 33.47337 34901 ft 434 kts 301°
2026-04-25 15:45 28.70900 33.42029 35064 ft 432 kts 301°
2026-04-25 15:45 28.72784 33.39373 35414 ft 429 kts 301°
2026-04-25 15:45 28.73417 33.38481 35545 ft 428 kts 301°
2026-04-25 15:46 28.76508 33.34116 35851 ft 426 kts 301°
2026-04-25 15:46 28.78362 33.31492 35888 ft 424 kts 301°
2026-04-25 15:46 28.82050 33.26268 35886 ft 421 kts 301°
2026-04-25 15:47 28.85104 33.21934 35885 ft 421 kts 301°
2026-04-25 15:47 28.88780 33.16714 35874 ft 422 kts 301°
2026-04-25 15:48 28.92451 33.11497 35877 ft 422 kts 301°
2026-04-25 15:48 28.96116 33.06282 35878 ft 423 kts 301°
2026-04-25 15:49 28.99800 33.01033 35868 ft 424 kts 301°
2026-04-25 15:49 29.03498 32.95757 35868 ft 426 kts 301°
2026-04-25 15:50 29.07206 32.90461 35877 ft 427 kts 301°
2026-04-25 15:50 29.10918 32.85152 35875 ft 428 kts 301°
2026-04-25 15:51 29.14007 32.80730 35878 ft 428 kts 301°
2026-04-25 15:51 29.18330 32.74532 35884 ft 429 kts 301°
2026-04-25 15:52 29.22048 32.69194 35881 ft 429 kts 301°
2026-04-25 15:52 29.25766 32.63849 35879 ft 429 kts 301°
2026-04-25 15:53 29.29480 32.58499 35885 ft 429 kts 301°
2026-04-25 15:53 29.33175 32.53121 35894 ft 428 kts 301°
2026-04-25 15:54 29.36857 32.47744 35906 ft 429 kts 301°
2026-04-25 15:54 29.40524 32.42383 35908 ft 430 kts 301°
2026-04-25 15:55 29.44216 32.36983 35916 ft 430 kts 301°
2026-04-25 15:55 29.47910 32.31574 35915 ft 430 kts 301°
2026-04-25 15:56 29.51602 32.26162 35902 ft 430 kts 301°
2026-04-25 15:56 29.55294 32.20739 35889 ft 432 kts 301°
2026-04-25 15:57 29.58989 32.15312 35908 ft 430 kts 301°
2026-04-25 15:57 29.62673 32.09891 35910 ft 429 kts 301°
2026-04-25 15:58 29.66321 32.04512 35912 ft 429 kts 301°
2026-04-25 15:58 29.69990 31.99096 35911 ft 429 kts 301°
2026-04-25 15:59 29.73656 31.93677 35907 ft 429 kts 300°
2026-04-25 15:59 29.77325 31.88247 35902 ft 430 kts 300°
2026-04-25 16:00 29.79738 31.84627 35899 ft 429 kts 300°
2026-04-25 16:00 29.84456 31.77261 35897 ft 430 kts 299°
2026-04-25 16:01 29.88018 31.71720 35887 ft 430 kts 300°
2026-04-25 16:01 29.90088 31.69180 35883 ft 443 kts 313°
2026-04-25 16:01 29.92679 31.67176 35897 ft 455 kts 322°
2026-04-25 16:02 29.95587 31.65611 35886 ft 468 kts 331°
2026-04-25 16:02 29.98799 31.64725 35900 ft 480 kts 341°
2026-04-25 16:02 30.05425 31.63619 35893 ft 485 kts 342°
2026-04-25 16:03 30.12136 31.62557 35850 ft 485 kts 342°
2026-04-25 16:03 30.18829 31.61405 35848 ft 485 kts 342°
2026-04-25 16:04 30.25462 31.60211 35841 ft 485 kts 342°
2026-04-25 16:04 30.32132 31.59002 35837 ft 485 kts 342°
2026-04-25 16:05 30.38804 31.57796 35844 ft 485 kts 342°
2026-04-25 16:06 30.48817 31.55986 35835 ft 485 kts 342°
2026-04-25 16:06 30.55459 31.54784 35839 ft 485 kts 342°
2026-04-25 16:07 30.62125 31.53576 35838 ft 485 kts 342°
2026-04-25 16:07 30.68800 31.52364 35839 ft 485 kts 342°
2026-04-25 16:08 30.75463 31.51153 35845 ft 484 kts 343°
2026-04-25 16:08 30.82125 31.49943 35840 ft 484 kts 343°
2026-04-25 16:09 30.88801 31.48730 35840 ft 484 kts 343°
2026-04-25 16:09 30.95420 31.47525 35843 ft 484 kts 343°
2026-04-25 16:10 31.01008 31.46506 35851 ft 485 kts 343°
2026-04-25 16:10 31.08767 31.45089 35853 ft 486 kts 343°
2026-04-25 16:11 31.15461 31.43865 35863 ft 486 kts 343°
2026-04-25 16:11 31.22160 31.42639 35863 ft 487 kts 343°
2026-04-25 16:12 31.28818 31.41412 35869 ft 488 kts 343°
2026-04-25 16:12 31.35532 31.40152 35865 ft 489 kts 343°
2026-04-25 16:13 31.42260 31.38887 35869 ft 489 kts 343°
2026-04-25 16:13 31.48986 31.37625 35873 ft 490 kts 343°
2026-04-25 16:14 31.55720 31.36378 35870 ft 491 kts 345°
2026-04-25 16:14 31.62565 31.35599 35879 ft 494 kts 348°
2026-04-25 16:15 31.69430 31.34954 35870 ft 495 kts 348°
2026-04-25 16:15 31.76291 31.34268 35875 ft 494 kts 348°
2026-04-25 16:16 31.83146 31.33557 35875 ft 495 kts 348°
2026-04-25 16:16 31.90002 31.32846 35871 ft 495 kts 348°
2026-04-25 16:17 31.96825 31.32131 35875 ft 495 kts 348°
2026-04-25 16:17 32.03695 31.31410 35875 ft 495 kts 348°
2026-04-25 16:18 32.10564 31.30692 35876 ft 495 kts 348°
2026-04-25 16:18 32.17435 31.29976 35867 ft 496 kts 348°
2026-04-25 16:19 32.24311 31.29239 35875 ft 495 kts 348°
2026-04-25 16:19 32.31177 31.28492 35873 ft 496 kts 348°
2026-04-25 16:20 32.41442 31.27377 35879 ft 496 kts 349°
2026-04-25 16:21 32.51773 31.26256 35883 ft 497 kts 348°
2026-04-25 16:21 32.58468 31.24691 35884 ft 486 kts 337°
2026-04-25 16:22 32.64684 31.21730 35884 ft 478 kts 328°
2026-04-25 16:22 32.70633 31.18191 35885 ft 478 kts 327°
2026-04-25 16:23 32.76590 31.14643 35883 ft 479 kts 328°
2026-04-25 16:23 32.82546 31.11140 35887 ft 480 kts 328°
2026-04-25 16:24 32.88550 31.07623 35885 ft 481 kts 328°
2026-04-25 16:24 32.94551 31.04101 35883 ft 481 kts 328°
2026-04-25 16:25 33.00558 31.00567 35887 ft 481 kts 328°
2026-04-25 16:25 33.06561 30.97030 35886 ft 481 kts 328°
2026-04-25 16:26 33.12502 30.93365 35884 ft 479 kts 325°
2026-04-25 16:26 33.18262 30.89401 35892 ft 478 kts 324°
2026-04-25 16:27 33.23966 30.85414 35889 ft 478 kts 324°
2026-04-25 16:27 33.29752 30.81393 35888 ft 478 kts 324°
2026-04-25 16:28 33.35520 30.77401 35890 ft 479 kts 324°
2026-04-25 16:28 33.41257 30.73430 35892 ft 479 kts 324°
2026-04-25 16:29 33.47036 30.69424 35893 ft 479 kts 324°
2026-04-25 16:29 33.52806 30.65416 35901 ft 479 kts 324°
2026-04-25 16:30 33.57602 30.62080 35905 ft 479 kts 324°
2026-04-25 16:30 33.64351 30.57377 35898 ft 480 kts 324°
2026-04-25 16:31 33.70089 30.53372 35906 ft 480 kts 324°
2026-04-25 16:31 33.75864 30.49335 35896 ft 480 kts 324°
2026-04-25 16:32 33.81635 30.45294 35902 ft 480 kts 324°
2026-04-25 16:32 33.87417 30.41239 35904 ft 480 kts 324°
2026-04-25 16:33 33.93196 30.37181 35907 ft 481 kts 324°
2026-04-25 16:33 33.98968 30.33120 35905 ft 481 kts 324°
2026-04-25 16:34 34.04745 30.29049 35906 ft 481 kts 324°
2026-04-25 16:34 34.10513 30.24979 35907 ft 480 kts 324°
2026-04-25 16:35 34.15317 30.21584 35907 ft 480 kts 324°
2026-04-25 16:35 34.22023 30.16836 35908 ft 480 kts 324°
2026-04-25 16:36 34.26815 30.13438 35908 ft 480 kts 324°
2026-04-25 16:36 34.32580 30.09344 35905 ft 480 kts 324°
2026-04-25 16:37 34.38343 30.05244 35906 ft 480 kts 324°
2026-04-25 16:37 34.44061 30.01065 35907 ft 476 kts 319°
2026-04-25 16:38 34.49070 29.96018 35894 ft 467 kts 309°
2026-04-25 16:38 34.53598 29.90374 35906 ft 466 kts 308°
2026-04-25 16:39 34.58115 29.84716 35904 ft 467 kts 309°
2026-04-25 16:39 34.62659 29.79069 35911 ft 467 kts 309°
2026-04-25 16:40 34.67212 29.73428 35910 ft 468 kts 309°
2026-04-25 16:40 34.71772 29.67772 35915 ft 468 kts 309°
2026-04-25 16:41 34.76302 29.62141 35915 ft 468 kts 309°
2026-04-25 16:41 34.83129 29.53636 35912 ft 468 kts 308°
2026-04-25 16:42 34.87686 29.47947 35913 ft 468 kts 308°
2026-04-25 16:42 34.92230 29.42264 35913 ft 468 kts 308°
2026-04-25 16:43 34.96768 29.36580 35908 ft 468 kts 308°
2026-04-25 16:43 35.01551 29.31216 35907 ft 475 kts 317°
2026-04-25 16:44 35.06866 29.26397 35917 ft 475 kts 317°
2026-04-25 16:44 35.12197 29.21615 35912 ft 476 kts 317°
2026-04-25 16:45 35.17518 29.16788 35912 ft 476 kts 317°
2026-04-25 16:45 35.22784 29.11971 35912 ft 476 kts 317°
2026-04-25 16:46 35.28085 29.07106 35910 ft 476 kts 317°
2026-04-25 16:46 35.32484 29.03063 35911 ft 476 kts 317°
2026-04-25 16:47 35.38674 28.97367 35910 ft 475 kts 317°
2026-04-25 16:47 35.43967 28.92488 35912 ft 475 kts 317°
2026-04-25 16:48 35.49228 28.87630 35913 ft 475 kts 317°
2026-04-25 16:48 35.54511 28.82744 35912 ft 475 kts 317°
2026-04-25 16:49 35.59791 28.77852 35912 ft 475 kts 317°
2026-04-25 16:49 35.65076 28.72948 35913 ft 475 kts 317°
2026-04-25 16:50 35.70364 28.68031 35915 ft 476 kts 317°
2026-04-25 16:50 35.75612 28.63144 35911 ft 476 kts 317°
2026-04-25 16:51 35.80890 28.58221 35915 ft 476 kts 317°
2026-04-25 16:51 35.85280 28.54121 35921 ft 475 kts 316°
2026-04-25 16:52 35.91410 28.48383 35918 ft 475 kts 316°
2026-04-25 16:52 35.96679 28.43443 35913 ft 475 kts 316°
2026-04-25 16:53 36.04578 28.36021 35920 ft 475 kts 316°
2026-04-25 16:54 36.09837 28.31069 35923 ft 475 kts 316°
2026-04-25 16:54 36.15099 28.26105 35911 ft 475 kts 316°
2026-04-25 16:55 36.20328 28.21164 35903 ft 475 kts 316°
2026-04-25 16:55 36.25586 28.16186 35895 ft 476 kts 316°
2026-04-25 16:56 36.30840 28.11204 35885 ft 476 kts 316°
2026-04-25 16:56 36.35971 28.06045 35893 ft 472 kts 311°
2026-04-25 16:57 36.40780 28.00490 35886 ft 472 kts 310°
2026-04-25 16:57 36.45556 27.94902 35893 ft 472 kts 311°
2026-04-25 16:58 36.50355 27.89316 35897 ft 473 kts 311°
2026-04-25 16:58 36.55135 27.83768 35903 ft 473 kts 311°
2026-04-25 16:59 36.59947 27.78181 35918 ft 474 kts 311°
2026-04-25 16:59 36.64775 27.72565 35922 ft 474 kts 311°
2026-04-25 17:00 36.69598 27.66942 35921 ft 474 kts 311°
2026-04-25 17:00 36.74384 27.61354 35926 ft 474 kts 311°
2026-04-25 17:01 36.79199 27.55720 35929 ft 474 kts 311°
2026-04-25 17:01 36.84013 27.50075 35936 ft 475 kts 311°
2026-04-25 17:02 36.88834 27.44415 35911 ft 476 kts 311°
2026-04-25 17:02 36.93652 27.38747 35913 ft 476 kts 311°
2026-04-25 17:03 36.98484 27.33050 35935 ft 476 kts 311°
2026-04-25 17:03 37.03269 27.27403 35926 ft 476 kts 311°
2026-04-25 17:04 37.08086 27.21705 35930 ft 476 kts 312°
2026-04-25 17:04 37.12896 27.16004 35937 ft 476 kts 312°
2026-04-25 17:05 37.17700 27.10300 35941 ft 476 kts 312°
2026-04-25 17:05 37.24898 27.01734 35939 ft 475 kts 312°
2026-04-25 17:06 37.29694 26.96013 35945 ft 475 kts 312°
2026-04-25 17:06 37.34489 26.90282 35951 ft 475 kts 312°
2026-04-25 17:07 37.39279 26.84548 35952 ft 475 kts 313°
2026-04-25 17:07 37.44209 26.79057 35947 ft 477 kts 316°
2026-04-25 17:08 37.49286 26.73659 35953 ft 477 kts 316°
2026-04-25 17:08 37.54345 26.68240 35954 ft 477 kts 316°
2026-04-25 17:09 37.59395 26.62781 35955 ft 478 kts 316°
2026-04-25 17:09 37.64436 26.57314 35962 ft 478 kts 316°
2026-04-25 17:10 37.69476 26.51842 35967 ft 478 kts 316°
2026-04-25 17:10 37.74482 26.46379 35973 ft 478 kts 316°
2026-04-25 17:11 37.79506 26.40881 35982 ft 478 kts 316°
2026-04-25 17:11 37.84532 26.35373 35976 ft 478 kts 316°
2026-04-25 17:12 37.89563 26.29857 35978 ft 478 kts 317°
2026-04-25 17:12 37.94606 26.24335 35979 ft 479 kts 317°
2026-04-25 17:13 37.97944 26.20673 35983 ft 479 kts 317°
2026-04-25 17:13 38.04649 26.13301 35976 ft 479 kts 317°
2026-04-25 17:14 38.09689 26.07750 35971 ft 480 kts 317°
2026-04-25 17:14 38.14740 26.02178 35975 ft 480 kts 317°
2026-04-25 17:15 38.19785 25.96602 35972 ft 481 kts 317°
2026-04-25 17:15 38.24857 25.91107 35972 ft 482 kts 321°
2026-04-25 17:16 38.30519 25.86509 35982 ft 483 kts 329°
2026-04-25 17:16 38.36369 25.82268 35977 ft 484 kts 330°
2026-04-25 17:17 38.42218 25.78009 35987 ft 484 kts 330°
2026-04-25 17:17 38.48055 25.73701 35991 ft 484 kts 330°
2026-04-25 17:18 38.53880 25.69371 35995 ft 484 kts 330°
2026-04-25 17:18 38.59671 25.65055 35991 ft 484 kts 331°
2026-04-25 17:19 38.65496 25.60707 36003 ft 484 kts 331°
2026-04-25 17:19 38.71307 25.56363 35990 ft 483 kts 331°
2026-04-25 17:20 38.77111 25.52016 35994 ft 483 kts 331°
2026-04-25 17:20 38.82920 25.47657 35996 ft 482 kts 331°
2026-04-25 17:21 38.88708 25.43306 35993 ft 482 kts 331°
2026-04-25 17:21 38.94448 25.38983 36010 ft 481 kts 331°
2026-04-25 17:22 38.98316 25.36064 36006 ft 481 kts 331°
2026-04-25 17:22 39.06009 25.30250 36001 ft 481 kts 331°
2026-04-25 17:23 39.11777 25.25880 36005 ft 481 kts 331°
2026-04-25 17:23 39.17506 25.21532 36008 ft 480 kts 331°
2026-04-25 17:24 39.22325 25.17868 36007 ft 480 kts 331°
2026-04-25 17:24 39.28070 25.13492 36004 ft 479 kts 331°
2026-04-25 17:25 39.33808 25.09113 36010 ft 478 kts 331°
2026-04-25 17:25 39.39503 25.04758 36005 ft 477 kts 331°
2026-04-25 17:26 39.45220 25.00378 35865 ft 476 kts 332°
2026-04-25 17:26 39.50887 24.96028 35979 ft 472 kts 332°
2026-04-25 17:27 39.56527 24.91690 36008 ft 471 kts 332°
2026-04-25 17:27 39.61216 24.88078 36015 ft 471 kts 332°
2026-04-25 17:28 39.67802 24.82995 36016 ft 471 kts 332°
2026-04-25 17:28 39.73440 24.78635 36024 ft 471 kts 332°
2026-04-25 17:29 39.79041 24.74294 36018 ft 471 kts 332°
2026-04-25 17:29 39.84669 24.69924 36009 ft 471 kts 332°
2026-04-25 17:30 39.90293 24.65549 36015 ft 471 kts 332°
2026-04-25 17:30 39.95915 24.61167 36015 ft 470 kts 332°
2026-04-25 17:31 40.01533 24.56779 36014 ft 470 kts 332°
2026-04-25 17:31 40.07109 24.52416 36012 ft 470 kts 332°
2026-04-25 17:32 40.12713 24.48023 36015 ft 469 kts 332°
2026-04-25 17:32 40.18311 24.43625 36016 ft 469 kts 332°
2026-04-25 17:33 40.23908 24.39220 36012 ft 469 kts 332°
2026-04-25 17:33 40.29497 24.34813 36014 ft 469 kts 332°
2026-04-25 17:34 40.35078 24.30403 36013 ft 468 kts 332°
2026-04-25 17:34 40.40628 24.26009 36011 ft 468 kts 332°
2026-04-25 17:35 40.46206 24.21585 36012 ft 468 kts 332°
2026-04-25 17:35 40.51781 24.17154 36011 ft 468 kts 332°
2026-04-25 17:36 40.57358 24.12712 36010 ft 468 kts 332°
2026-04-25 17:36 40.62931 24.08265 36006 ft 468 kts 332°
2026-04-25 17:37 40.68499 24.03814 36004 ft 468 kts 331°
2026-04-25 17:37 40.74027 23.99385 36000 ft 467 kts 331°
2026-04-25 17:38 40.78681 23.95650 36002 ft 467 kts 331°
2026-04-25 17:38 40.85131 23.90464 35998 ft 467 kts 331°
2026-04-25 17:39 40.90680 23.85992 36005 ft 466 kts 331°
2026-04-25 17:39 40.96220 23.81519 36003 ft 466 kts 331°
2026-04-25 17:40 41.01754 23.77041 35998 ft 465 kts 331°
2026-04-25 17:40 41.07247 23.72588 35997 ft 465 kts 331°
2026-04-25 17:41 41.12759 23.68110 35995 ft 464 kts 331°
2026-04-25 17:41 41.18262 23.63631 35992 ft 464 kts 331°
2026-04-25 17:42 41.23761 23.59147 35991 ft 463 kts 331°
2026-04-25 17:42 41.29248 23.54661 35996 ft 463 kts 331°
2026-04-25 17:43 41.34744 23.50161 35991 ft 463 kts 331°
2026-04-25 17:43 41.40253 23.45669 36145 ft 464 kts 332°
2026-04-25 17:44 41.43065 23.43702 36453 ft 461 kts 336°
2026-04-25 17:44 41.45948 23.41824 36778 ft 459 kts 336°
2026-04-25 17:44 41.48830 23.39973 36933 ft 460 kts 336°
2026-04-25 17:44 41.51725 23.38117 36970 ft 461 kts 336°
2026-04-25 17:45 41.55582 23.35629 36986 ft 459 kts 336°
2026-04-25 17:45 41.63195 23.30663 36998 ft 456 kts 336°
2026-04-25 17:46 41.68883 23.26929 36998 ft 454 kts 336°
2026-04-25 17:46 41.74557 23.23199 37008 ft 454 kts 335°
2026-04-25 17:47 41.80237 23.19458 37001 ft 455 kts 335°
2026-04-25 17:47 41.85921 23.15707 37010 ft 456 kts 335°
2026-04-25 17:48 41.94435 23.10075 36996 ft 456 kts 335°
2026-04-25 17:49 42.00132 23.06296 36997 ft 456 kts 335°
2026-04-25 17:49 42.05821 23.02514 37000 ft 456 kts 335°
2026-04-25 17:50 42.11477 22.98748 36999 ft 456 kts 335°
2026-04-25 17:50 42.17163 22.94954 36994 ft 455 kts 335°
2026-04-25 17:51 42.22841 22.91157 36992 ft 455 kts 335°
2026-04-25 17:51 42.28507 22.87361 37001 ft 455 kts 335°
2026-04-25 17:52 42.34169 22.83558 37000 ft 454 kts 334°
2026-04-25 17:52 42.39823 22.79749 37019 ft 454 kts 334°
2026-04-25 17:53 42.45466 22.75940 37020 ft 453 kts 334°
2026-04-25 17:53 42.51120 22.72116 37011 ft 454 kts 334°
2026-04-25 17:54 42.56732 22.68313 37026 ft 454 kts 334°
2026-04-25 17:54 42.62374 22.64482 37022 ft 453 kts 334°
2026-04-25 17:55 42.68018 22.60639 37030 ft 453 kts 334°
2026-04-25 17:55 42.73658 22.56790 37024 ft 453 kts 334°
2026-04-25 17:56 42.79289 22.52940 37028 ft 452 kts 334°
2026-04-25 17:56 42.84837 22.48891 37029 ft 452 kts 328°
2026-04-25 17:57 42.89848 22.43780 37027 ft 452 kts 322°
2026-04-25 17:57 42.94759 22.38404 37018 ft 452 kts 322°
2026-04-25 17:58 42.99673 22.33032 37025 ft 452 kts 322°
2026-04-25 17:58 43.04571 22.27700 37011 ft 452 kts 322°
2026-04-25 17:59 43.09493 22.22347 37019 ft 451 kts 322°
2026-04-25 17:59 43.14404 22.16998 37008 ft 451 kts 322°
2026-04-25 18:00 43.18484 22.12544 36994 ft 450 kts 322°
2026-04-25 18:00 43.24173 22.06320 36999 ft 450 kts 322°
2026-04-25 18:01 43.29056 22.00965 37005 ft 449 kts 321°
2026-04-25 18:01 43.33946 21.95591 36985 ft 449 kts 321°
2026-04-25 18:02 43.38826 21.90216 36986 ft 449 kts 321°
2026-04-25 18:02 43.43700 21.84838 36994 ft 449 kts 321°
2026-04-25 18:03 43.48540 21.79484 36994 ft 449 kts 321°
2026-04-25 18:03 43.53408 21.74088 37006 ft 449 kts 321°
2026-04-25 18:04 43.58273 21.68684 36997 ft 449 kts 321°
2026-04-25 18:04 43.63146 21.63261 36996 ft 449 kts 321°
2026-04-25 18:05 43.68008 21.57837 37009 ft 448 kts 321°
2026-04-25 18:05 43.72823 21.52454 37005 ft 448 kts 321°
2026-04-25 18:06 43.77665 21.47030 36999 ft 447 kts 320°
2026-04-25 18:06 43.82501 21.41600 37001 ft 447 kts 320°
2026-04-25 18:07 43.87331 21.36167 36999 ft 446 kts 320°
2026-04-25 18:07 43.92135 21.30751 37004 ft 445 kts 320°
2026-04-25 18:08 43.96942 21.25318 37002 ft 445 kts 320°
2026-04-25 18:08 44.01741 21.19883 37004 ft 444 kts 320°
2026-04-25 18:09 44.06493 21.14491 37008 ft 444 kts 320°
2026-04-25 18:09 44.11286 21.09040 37005 ft 444 kts 320°
2026-04-25 18:10 44.16055 21.03605 37003 ft 444 kts 320°
2026-04-25 18:10 44.20834 20.98147 37007 ft 444 kts 320°
2026-04-25 18:11 44.25591 20.92702 37008 ft 444 kts 320°
2026-04-25 18:11 44.30340 20.87254 37010 ft 443 kts 319°
2026-04-25 18:12 44.34301 20.82701 37006 ft 443 kts 319°
2026-04-25 18:12 44.39060 20.77220 37005 ft 443 kts 319°
2026-04-25 18:13 44.44580 20.70847 37007 ft 443 kts 319°
2026-04-25 18:13 44.48557 20.66246 37005 ft 442 kts 319°
2026-04-25 18:14 44.55665 20.58001 37000 ft 442 kts 319°
2026-04-25 18:14 44.60334 20.52571 37002 ft 442 kts 319°
2026-04-25 18:15 44.65064 20.47057 36997 ft 441 kts 319°
2026-04-25 18:15 44.69776 20.41553 36998 ft 440 kts 319°
2026-04-25 18:16 44.74488 20.36038 36994 ft 440 kts 318°
2026-04-25 18:17 44.81510 20.27794 36996 ft 439 kts 318°
2026-04-25 18:17 44.86198 20.22275 36996 ft 439 kts 318°
2026-04-25 18:18 44.90879 20.16753 36995 ft 439 kts 318°
2026-04-25 18:18 44.95565 20.11213 36995 ft 438 kts 318°
2026-04-25 18:19 45.00242 20.05672 36995 ft 438 kts 318°
2026-04-25 18:19 45.04909 20.00129 37001 ft 438 kts 317°
2026-04-25 18:20 45.09576 19.94575 36998 ft 438 kts 317°
2026-04-25 18:20 45.14204 19.89054 36993 ft 438 kts 317°
2026-04-25 18:21 45.18862 19.83485 36998 ft 437 kts 317°
2026-04-25 18:21 45.23515 19.77911 36996 ft 437 kts 317°
2026-04-25 18:22 45.28158 19.72336 36994 ft 437 kts 317°
2026-04-25 18:22 45.32799 19.66751 36990 ft 437 kts 317°
2026-04-25 18:23 45.37385 19.61220 36985 ft 437 kts 317°
2026-04-25 18:23 45.42013 19.55626 36987 ft 436 kts 317°
2026-04-25 18:24 45.46636 19.50025 36989 ft 436 kts 317°
2026-04-25 18:24 45.51262 19.44408 36984 ft 437 kts 317°
2026-04-25 18:25 45.55882 19.38786 36980 ft 437 kts 316°
2026-04-25 18:25 45.60501 19.33153 36983 ft 437 kts 316°
2026-04-25 18:26 45.65119 19.27507 36986 ft 437 kts 316°
2026-04-25 18:26 45.69715 19.21877 36981 ft 437 kts 316°
2026-04-25 18:27 45.74330 19.16209 36980 ft 437 kts 316°
2026-04-25 18:27 45.78940 19.10536 36974 ft 437 kts 316°
2026-04-25 18:28 45.83487 19.04927 36976 ft 437 kts 316°
2026-04-25 18:28 45.88127 18.99190 36974 ft 437 kts 316°
2026-04-25 18:29 45.95025 18.90616 36969 ft 437 kts 315°
2026-04-25 18:30 46.04100 18.78989 36973 ft 437 kts 315°
2026-04-25 18:30 46.08641 18.73149 36978 ft 437 kts 315°
2026-04-25 18:31 46.13178 18.67311 36965 ft 437 kts 315°
2026-04-25 18:31 46.17713 18.61464 36965 ft 438 kts 315°
2026-04-25 18:32 46.22203 18.55663 36970 ft 438 kts 315°
2026-04-25 18:32 46.26716 18.49819 36977 ft 438 kts 315°
2026-04-25 18:33 46.31242 18.43943 36973 ft 438 kts 315°
2026-04-25 18:33 46.35776 18.38044 36975 ft 438 kts 315°
2026-04-25 18:34 46.40309 18.32132 36971 ft 439 kts 315°
2026-04-25 18:34 46.44848 18.26198 36971 ft 439 kts 315°
2026-04-25 18:35 46.49352 18.20297 36976 ft 439 kts 314°
2026-04-25 18:35 46.53888 18.14340 36971 ft 440 kts 314°
2026-04-25 18:36 46.58425 18.08367 36972 ft 440 kts 314°
2026-04-25 18:36 46.62960 18.02383 36971 ft 440 kts 314°
2026-04-25 18:37 46.67489 17.96392 36973 ft 439 kts 314°
2026-04-25 18:37 46.72011 17.90397 36980 ft 439 kts 314°
2026-04-25 18:38 46.76528 17.84395 36978 ft 439 kts 314°
2026-04-25 18:38 46.81013 17.78420 36976 ft 439 kts 314°
2026-04-25 18:39 46.85525 17.72394 36977 ft 439 kts 314°
2026-04-25 18:39 46.90033 17.66361 36978 ft 439 kts 314°
2026-04-25 18:40 46.94541 17.60312 36979 ft 439 kts 314°
2026-04-25 18:40 46.99043 17.54258 36978 ft 439 kts 314°
2026-04-25 18:41 47.03350 17.48452 36980 ft 439 kts 314°
2026-04-25 18:41 47.07762 17.42490 36974 ft 439 kts 314°
2026-04-25 18:42 47.10768 17.38421 36975 ft 439 kts 314°
2026-04-25 18:42 47.16738 17.30318 36975 ft 439 kts 314°
2026-04-25 18:43 47.21217 17.24223 36971 ft 440 kts 314°
2026-04-25 18:43 47.25723 17.18075 36970 ft 440 kts 313°
2026-04-25 18:44 47.30208 17.11942 36972 ft 440 kts 313°
2026-04-25 18:44 47.34696 17.05790 36974 ft 440 kts 313°
2026-04-25 18:45 47.39172 16.99638 36972 ft 440 kts 313°
2026-04-25 18:45 47.43626 16.93502 36971 ft 440 kts 313°
2026-04-25 18:46 47.48105 16.87316 36970 ft 440 kts 313°
2026-04-25 18:46 47.52581 16.81120 36969 ft 440 kts 313°
2026-04-25 18:47 47.57071 16.74947 36970 ft 441 kts 315°
2026-04-25 18:47 47.61827 16.69184 36975 ft 442 kts 317°
2026-04-25 18:48 47.66649 16.63495 36970 ft 442 kts 317°
2026-04-25 18:48 47.71448 16.57799 36957 ft 442 kts 317°
2026-04-25 18:49 47.76210 16.52102 36954 ft 442 kts 317°
2026-04-25 18:49 47.80995 16.46348 36975 ft 442 kts 317°
2026-04-25 18:50 47.85785 16.40574 36958 ft 443 kts 317°
2026-04-25 18:50 47.90584 16.34775 36963 ft 444 kts 317°
2026-04-25 18:51 47.93761 16.30931 36974 ft 444 kts 317°
2026-04-25 18:51 48.00183 16.23137 36976 ft 445 kts 317°
2026-04-25 18:52 48.04993 16.17282 36961 ft 446 kts 317°
2026-04-25 18:52 48.09771 16.11453 36973 ft 446 kts 318°
2026-04-25 18:53 48.14578 16.05574 36974 ft 446 kts 318°
2026-04-25 18:53 48.19386 15.99679 36976 ft 446 kts 318°
2026-04-25 18:54 48.26594 15.90813 36981 ft 446 kts 318°
2026-04-25 18:55 48.31388 15.84898 36981 ft 446 kts 318°
2026-04-25 18:55 48.36150 15.79007 36985 ft 446 kts 318°
2026-04-25 18:56 48.40939 15.73069 36982 ft 446 kts 318°
2026-04-25 18:56 48.45730 15.67112 36986 ft 446 kts 318°
2026-04-25 18:57 48.50509 15.61156 36988 ft 446 kts 318°
2026-04-25 18:57 48.55254 15.55226 36996 ft 445 kts 318°
2026-04-25 18:58 48.60023 15.49252 37000 ft 445 kts 318°
2026-04-25 18:58 48.67168 15.40273 37004 ft 445 kts 318°
2026-04-25 18:59 48.76655 15.28298 37008 ft 443 kts 318°
2026-04-25 19:00 48.83712 15.19350 37012 ft 441 kts 318°
2026-04-25 19:01 48.90760 15.10368 37008 ft 440 kts 317°
2026-04-25 19:01 48.94592 15.05291 37010 ft 439 kts 316°
2026-04-25 19:02 49.01453 14.96036 37006 ft 439 kts 316°
2026-04-25 19:03 49.07568 14.87790 37016 ft 439 kts 316°
2026-04-25 19:03 49.12885 14.80616 37016 ft 439 kts 316°
2026-04-25 19:04 49.19738 14.71340 37015 ft 438 kts 316°
2026-04-25 19:05 49.28857 14.58939 37019 ft 438 kts 316°
2026-04-25 19:06 49.33416 14.52716 37023 ft 438 kts 316°
2026-04-25 19:06 49.40200 14.43425 37026 ft 437 kts 316°
2026-04-25 19:07 49.46993 14.34085 37021 ft 436 kts 316°
2026-04-25 19:08 49.53755 14.24754 37023 ft 434 kts 316°
2026-04-25 19:09 49.61972 14.13363 37022 ft 433 kts 316°
2026-04-25 19:10 49.69404 14.03016 37027 ft 432 kts 316°
2026-04-25 19:10 49.73859 13.96791 37025 ft 431 kts 316°
2026-04-25 19:11 49.78304 13.90563 37029 ft 431 kts 316°
2026-04-25 19:11 49.82755 13.84313 37027 ft 431 kts 316°
2026-04-25 19:12 49.87199 13.78054 37032 ft 431 kts 316°
2026-04-25 19:12 49.91623 13.71810 37032 ft 432 kts 316°
2026-04-25 19:13 49.96062 13.65526 37031 ft 432 kts 316°
2026-04-25 19:13 50.00454 13.59293 37033 ft 432 kts 316°
2026-04-25 19:14 50.04886 13.52988 37034 ft 431 kts 316°
2026-04-25 19:14 50.09295 13.46697 37036 ft 430 kts 316°
2026-04-25 19:15 50.13613 13.40522 37032 ft 430 kts 316°
2026-04-25 19:15 50.18012 13.34215 37036 ft 429 kts 316°
2026-04-25 19:16 50.22396 13.27912 37043 ft 428 kts 316°
2026-04-25 19:16 50.26761 13.21618 37046 ft 427 kts 316°
2026-04-25 19:17 50.31117 13.15323 37041 ft 426 kts 316°
2026-04-25 19:17 50.35406 13.09107 37043 ft 425 kts 316°
2026-04-25 19:18 50.39747 13.02801 37041 ft 425 kts 316°
2026-04-25 19:18 50.44082 12.96487 37036 ft 425 kts 316°
2026-04-25 19:18 50.46185 12.93419 36868 ft 423 kts 316°
2026-04-25 19:19 50.48369 12.90307 36449 ft 425 kts 318°
2026-04-25 19:19 50.50640 12.87310 36131 ft 429 kts 319°
2026-04-25 19:19 50.52955 12.84333 36068 ft 432 kts 320°
2026-04-25 19:20 50.57628 12.78370 36039 ft 432 kts 320°
2026-04-25 19:20 50.62280 12.72395 36047 ft 431 kts 319°
2026-04-25 19:21 50.66914 12.66397 36050 ft 431 kts 319°
2026-04-25 19:21 50.73841 12.57386 36045 ft 432 kts 319°
2026-04-25 19:22 50.78478 12.51332 36053 ft 432 kts 319°
2026-04-25 19:23 50.85424 12.42235 36068 ft 432 kts 319°
2026-04-25 19:23 50.92335 12.33148 36047 ft 432 kts 319°
2026-04-25 19:24 50.96963 12.27043 36049 ft 432 kts 319°
2026-04-25 19:25 51.06203 12.14804 36056 ft 432 kts 319°
2026-04-25 19:25 51.10824 12.08658 36046 ft 432 kts 319°
2026-04-25 19:26 51.15416 12.02535 36044 ft 432 kts 319°
2026-04-25 19:26 51.20036 11.96357 36048 ft 433 kts 319°
2026-04-25 19:27 51.23864 11.91226 36044 ft 433 kts 319°
2026-04-25 19:27 51.29255 11.83980 36044 ft 433 kts 319°
2026-04-25 19:28 51.33834 11.77806 36046 ft 433 kts 319°
2026-04-25 19:28 51.38443 11.71577 36055 ft 433 kts 319°
2026-04-25 19:29 51.43044 11.65341 36060 ft 433 kts 319°
2026-04-25 19:29 51.47639 11.59096 36061 ft 433 kts 319°
2026-04-25 19:30 51.52227 11.52842 36060 ft 432 kts 319°
2026-04-25 19:30 51.56779 11.46621 36063 ft 431 kts 319°
2026-04-25 19:31 51.59468 11.42939 36064 ft 431 kts 319°
2026-04-25 19:31 51.63972 11.36757 36059 ft 430 kts 319°
2026-04-25 19:32 51.68522 11.30494 36056 ft 430 kts 319°
2026-04-25 19:32 51.71561 11.26302 36057 ft 429 kts 319°
2026-04-25 19:33 51.77600 11.17949 36056 ft 429 kts 319°
2026-04-25 19:33 51.82124 11.11673 36060 ft 428 kts 319°
2026-04-25 19:34 51.87124 11.06623 36073 ft 429 kts 335°
2026-04-25 19:34 51.92853 11.03785 36065 ft 435 kts 348°
2026-04-25 19:35 51.98869 11.02530 36074 ft 436 kts 349°
2026-04-25 19:35 52.04903 11.01361 36081 ft 437 kts 349°
2026-04-25 19:36 52.10940 11.00123 36089 ft 437 kts 349°
2026-04-25 19:36 52.16933 10.98850 35700 ft 435 kts 349°
2026-04-25 19:37 52.19949 10.98199 34950 ft 437 kts 349°
2026-04-25 19:37 52.22957 10.97550 34236 ft 435 kts 349°
2026-04-25 19:37 52.25957 10.96904 33458 ft 433 kts 349°
2026-04-25 19:37 52.28934 10.96263 32678 ft 431 kts 348°
2026-04-25 19:38 52.31871 10.95629 31905 ft 429 kts 348°
2026-04-25 19:38 52.34785 10.95003 31127 ft 417 kts 348°
2026-04-25 19:38 52.37627 10.94393 30394 ft 407 kts 347°
2026-04-25 19:38 52.40400 10.93795 29576 ft 397 kts 347°
2026-04-25 19:39 52.43115 10.93207 28746 ft 388 kts 347°
2026-04-25 19:39 52.45762 10.92631 27943 ft 380 kts 347°
2026-04-25 19:39 52.48357 10.92066 27148 ft 372 kts 347°
2026-04-25 19:39 52.50890 10.91425 26384 ft 363 kts 345°
2026-04-25 19:40 52.53353 10.90697 25638 ft 357 kts 345°
2026-04-25 19:40 52.55776 10.89955 24850 ft 352 kts 345°
2026-04-25 19:40 52.58192 10.89196 23930 ft 366 kts 344°
2026-04-25 19:40 52.60710 10.88181 23326 ft 374 kts 340°
2026-04-25 19:41 52.63199 10.86883 22926 ft 376 kts 338°
2026-04-25 19:41 52.65703 10.85578 22544 ft 378 kts 339°
2026-04-25 19:41 52.68231 10.84383 22223 ft 378 kts 341°
2026-04-25 19:41 52.69086 10.83997 22062 ft 377 kts 341°
2026-04-25 19:42 52.73201 10.82178 21159 ft 354 kts 341°
2026-04-25 19:42 52.75537 10.81174 20639 ft 339 kts 341°
2026-04-25 19:42 52.77785 10.80222 20128 ft 326 kts 341°
2026-04-25 19:42 52.79938 10.79285 19620 ft 315 kts 340°
2026-04-25 19:43 52.82020 10.78372 19141 ft 304 kts 340°
2026-04-25 19:43 52.84038 10.77489 18663 ft 295 kts 340°
2026-04-25 19:43 52.86001 10.76634 18162 ft 288 kts 340°
2026-04-25 19:43 52.87920 10.75801 17613 ft 283 kts 340°
2026-04-25 19:44 52.89825 10.74976 17115 ft 285 kts 340°
2026-04-25 19:44 52.91739 10.74133 16617 ft 290 kts 340°
2026-04-25 19:44 52.93688 10.73231 16126 ft 291 kts 339°
2026-04-25 19:44 52.95641 10.72314 15634 ft 292 kts 339°
2026-04-25 19:45 52.97600 10.71388 15131 ft 293 kts 339°
2026-04-25 19:45 52.99551 10.70467 14644 ft 287 kts 339°
2026-04-25 19:45 53.01445 10.69580 14141 ft 279 kts 339°
2026-04-25 19:45 53.03290 10.68724 13658 ft 271 kts 339°
2026-04-25 19:46 53.05091 10.67893 13116 ft 266 kts 339°
2026-04-25 19:46 53.06867 10.67077 12601 ft 264 kts 339°
2026-04-25 19:46 53.08658 10.66248 12116 ft 270 kts 339°
2026-04-25 19:46 53.10485 10.65394 11540 ft 277 kts 339°
2026-04-25 19:47 53.12372 10.64500 10831 ft 286 kts 339°
2026-04-25 19:47 53.14283 10.63590 10440 ft 277 kts 339°
2026-04-25 19:47 53.16029 10.62780 10230 ft 250 kts 339°
2026-04-25 19:47 53.17630 10.62066 10083 ft 224 kts 339°
2026-04-25 19:48 53.19056 10.61459 10064 ft 206 kts 339°
2026-04-25 19:48 53.20455 10.60869 10079 ft 209 kts 338°
2026-04-25 19:48 53.21681 10.59752 10076 ft 201 kts 311°
2026-04-25 19:48 53.22282 10.57627 9917 ft 216 kts 284°
2026-04-25 19:49 53.22238 10.55895 9645 ft 237 kts 264°
2026-04-25 19:49 53.21767 10.54160 9525 ft 252 kts 246°
2026-04-25 19:49 53.20158 10.51158 8949 ft 269 kts 235°
2026-04-25 19:49 53.18829 10.48994 8403 ft 264 kts 234°
2026-04-25 19:50 53.16261 10.44887 7350 ft 250 kts 234°
2026-04-25 19:50 53.15006 10.42876 6730 ft 251 kts 234°
2026-04-25 19:50 53.13728 10.40772 6123 ft 263 kts 234°
2026-04-25 19:51 53.12447 10.38633 5453 ft 258 kts 234°
2026-04-25 19:51 53.11224 10.36592 5235 ft 238 kts 235°
2026-04-25 19:51 53.10407 10.34347 5042 ft 221 kts 265°
2026-04-25 19:51 53.10479 10.31970 5001 ft 203 kts 296°
2026-04-25 19:52 53.11122 10.29929 5001 ft 197 kts 304°
2026-04-25 19:52 53.11803 10.27952 4986 ft 192 kts 303°
2026-04-25 19:52 53.12467 10.26037 4990 ft 190 kts 304°
2026-04-25 19:52 53.13226 10.24318 4987 ft 186 kts 323°
2026-04-25 19:53 53.14434 10.23654 4989 ft 188 kts 357°
2026-04-25 19:53 53.15710 10.24384 5027 ft 202 kts 20°
2026-04-25 19:53 53.16939 10.25628 5003 ft 209 kts 24°
2026-04-25 19:53 53.18167 10.26930 4996 ft 208 kts 24°
2026-04-25 19:54 53.19370 10.28215 4981 ft 206 kts 24°
2026-04-25 19:54 53.20576 10.29437 4983 ft 201 kts 20°
2026-04-25 19:54 53.21801 10.30536 4988 ft 198 kts 19°
2026-04-25 19:54 53.22602 10.31248 4989 ft 196 kts 19°
2026-04-25 19:55 53.24244 10.32239 4993 ft 187 kts
2026-04-25 19:55 53.25510 10.32690 5001 ft 186 kts
2026-04-25 19:55 53.26766 10.32975 4973 ft 176 kts 348°
2026-04-25 19:55 53.27871 10.32250 4996 ft 173 kts 329°
2026-04-25 19:56 53.28855 10.31051 4990 ft 178 kts 317°
2026-04-25 19:56 53.29710 10.29546 4986 ft 178 kts 314°
2026-04-25 19:56 53.30542 10.28025 4988 ft 177 kts 314°
2026-04-25 19:56 53.31440 10.26659 4986 ft 174 kts 327°
2026-04-25 19:57 53.32506 10.25711 4984 ft 174 kts 332°
2026-04-25 19:57 53.33603 10.24829 4991 ft 178 kts 332°
2026-04-25 19:57 53.34756 10.23850 5032 ft 194 kts 332°
2026-04-25 19:57 53.35951 10.22833 4980 ft 186 kts 332°
2026-04-25 19:58 53.37057 10.21894 4642 ft 176 kts 332°
2026-04-25 19:58 53.38126 10.20983 4233 ft 167 kts 331°
2026-04-25 19:58 53.39107 10.20147 3984 ft 144 kts 331°
2026-04-25 19:58 53.40002 10.19382 4033 ft 148 kts 332°
2026-04-25 19:59 53.40916 10.18600 3986 ft 145 kts 332°
2026-04-25 19:59 53.41802 10.17843 3858 ft 143 kts 332°
2026-04-25 19:59 53.42689 10.17085 3591 ft 143 kts 332°
2026-04-25 19:59 53.43586 10.16318 3340 ft 145 kts 332°
2026-04-25 20:00 53.44499 10.15537 3072 ft 151 kts 332°
2026-04-25 20:00 53.45121 10.15004 3062 ft 153 kts 331°
2026-04-25 20:00 53.46392 10.13916 3002 ft 150 kts 331°
2026-04-25 20:00 53.47298 10.13141 2990 ft 144 kts 331°
2026-04-25 20:01 53.49067 10.11625 2999 ft 144 kts 331°
2026-04-25 20:01 53.49950 10.10867 2948 ft 146 kts 331°
2026-04-25 20:01 53.50849 10.10096 2802 ft 144 kts 330°
2026-04-25 20:02 53.51738 10.09334 2622 ft 144 kts 330°
2026-04-25 20:02 53.52632 10.08566 2429 ft 143 kts 330°
2026-04-25 20:02 53.53511 10.07810 2231 ft 142 kts 330°
2026-04-25 20:02 53.54393 10.07051 2031 ft 143 kts 329°
2026-04-25 20:03 53.55279 10.06289 1828 ft 143 kts 329°
2026-04-25 20:03 53.56165 10.05525 1601 ft 144 kts 330°
2026-04-25 20:03 53.57069 10.04748 1365 ft 147 kts 331°
2026-04-25 20:03 53.57980 10.03963 1120 ft 148 kts 331°
2026-04-25 20:04 53.58903 10.03170 897 ft 149 kts 331°
2026-04-25 20:04 53.59792 10.02433 734 ft 134 kts 329°
2026-04-25 20:04 53.60600 10.01697 486 ft 128 kts 329°
2026-04-25 20:04 53.61368 10.01038 389 ft 125 kts 330°
2026-04-25 20:05 53.62143 10.00381 260 ft 123 kts 327°
2026-04-25 20:05 53.62905 9.99720 116 ft 118 kts 328°
2026-04-25 20:05 53.63581 9.99124 52 ft 95 kts 333°
2026-04-25 20:05 53.63896 9.98852 49 ft 24 kts 333°
2026-04-25 20:06 53.63950 9.98857 49 ft 4 kts 63°
2026-04-25 20:06 53.63945 9.98909 49 ft 5 kts 114°
2026-04-25 20:06 53.63922 9.98970 51 ft 7 kts 124°
2026-04-25 20:06 53.63887 9.99052 51 ft 10 kts 125°
2026-04-25 20:07 53.63843 9.99156 51 ft 12 kts 126°
2026-04-25 20:07 53.63780 9.99302 52 ft 20 kts 126°
2026-04-25 20:07 53.63697 9.99492 50 ft 20 kts 126°
2026-04-25 20:07 53.63616 9.99682 50 ft 20 kts 126°
2026-04-25 20:08 53.63598 9.99723 51 ft 0 kts 125°
2026-04-25 20:08 53.63593 9.99736 50 ft 9 kts 125°
2026-04-25 20:08 53.63527 9.99889 49 ft 13 kts 126°
2026-04-25 20:09 53.63485 9.99985 48 ft 9 kts 126°
2026-04-25 20:09 53.63451 10.00067 50 ft 9 kts 124°
2026-04-25 20:09 53.63415 10.00148 52 ft 9 kts 133°
2026-04-25 20:09 53.63384 10.00181 49 ft 4 kts 159°
2026-04-25 20:10 53.63374 10.00186 49 ft 0 kts 165°
2026-04-25 20:10 53.63368 10.00188 51 ft 1 kts 168°
2026-04-25 20:10 53.63359 10.00190 53 ft 2 kts 170°
2026-04-25 20:10 53.63299 10.00201 55 ft 19 kts 174°
2026-04-25 20:11 53.63185 10.00215 54 ft 13 kts 176°
2026-04-25 20:11 53.63116 10.00224 50 ft 5 kts 175°
2026-04-25 20:11 53.63079 10.00223 54 ft 6 kts 178°
2026-04-25 20:11 53.63036 10.00278 52 ft 9 kts 127°
2026-04-25 20:12 53.63012 10.00339 50 ft 0 kts 123°
2026-04-25 20:12 53.63011 10.00342 51 ft 0 kts 122°